Location: Sundre
(51.7972°N, 114.6405°W)
Time: 14:47:13
(UTC-07:00)

UKube-1 - Visible Passes

Search period start: 20 January 2020 00:00
Search period end: 30 January 2020 00:00
Orbit: 614 x 618 km, 98.5° (Epoch: 20 January)

Date Brightness Start Highest point End Pass type
(mag) Time Alt. Az. Time Alt. Az. Time Alt. Az.
20 Jan ? 18:44:28 10° NNE 18:48:48 83° WNW 18:53:07 10° SSW visible
20 Jan ? 20:21:56 10° NNW 20:24:07 14° NW 20:26:17 10° W visible
21 Jan ? 19:00:34 10° N 19:04:50 59° WNW 19:09:04 10° SSW visible
21 Jan ? 20:39:09 10° NW 20:39:56 10° NW 20:40:43 10° WNW visible
22 Jan ? 17:41:04 10° NE 17:44:40 25° E 17:48:15 10° SSE visible
22 Jan ? 19:16:44 10° N 19:20:49 43° WNW 19:24:53 10° SW visible
23 Jan ? 17:56:52 10° NNE 18:00:50 35° E 18:04:47 10° SSE visible
23 Jan ? 19:32:56 10° N 19:36:46 32° WNW 19:40:35 10° SW visible
24 Jan ? 18:12:45 10° NNE 18:16:58 48° E 18:21:08 10° S visible
24 Jan ? 19:49:13 10° N 19:52:41 24° WNW 19:56:08 10° WSW visible
25 Jan ? 18:28:44 10° NNE 18:33:03 69° ESE 18:37:20 10° S visible
25 Jan ? 20:05:37 10° NNW 20:08:35 18° WNW 20:11:32 10° W visible
26 Jan ? 18:44:46 10° NNE 18:49:06 85° WNW 18:53:25 10° SSW visible
26 Jan ? 20:22:11 10° NNW 20:24:26 14° NW 20:26:41 10° W visible
27 Jan ? 19:00:51 10° N 19:05:08 61° WNW 19:09:22 10° SSW visible
27 Jan ? 20:39:15 10° NW 20:40:15 11° NW 20:41:14 10° WNW visible
28 Jan ? 19:17:00 10° N 19:21:07 44° WNW 19:25:12 10° SW visible
29 Jan ? 17:57:10 10° NNE 18:01:06 34° E 18:05:01 10° SSE visible
29 Jan ? 19:33:12 10° N 19:37:04 32° WNW 19:40:54 10° SW visible
